TimeCDT,TemperatureF,Dew PointF,Humidity,Sea Level PressureIn,VisibilityMPH,Wind Direction,Wind SpeedMPH,Gust SpeedMPH,PrecipitationIn,Events,Conditions,WindDirDegrees,DateUTC
12:54 AM,69.1,66.9,93,29.99,10.0,ESE,5.8,-,0.01,,Mostly Cloudy,110,2013-06-16 05:54:00
1:54 AM,69.1,66.9,93,29.98,10.0,Calm,Calm,-,N/A,,Partly Cloudy,0,2013-06-16 06:54:00
2:08 AM,69.8,66.2,88,29.99,10.0,South,3.5,-,N/A,,Mostly Cloudy,180,2013-06-16 07:08:00
2:28 AM,69.8,66.2,88,29.98,10.0,South,4.6,-,N/A,,Partly Cloudy,170,2013-06-16 07:28:00
2:54 AM,69.1,66.9,93,29.96,10.0,South,5.8,-,N/A,,Clear,180,2013-06-16 07:54:00
3:54 AM,69.1,66.9,93,29.96,10.0,SW,4.6,-,0.00,Rain,Light Rain,230,2013-06-16 08:54:00
4:54 AM,69.1,66.9,93,29.94,5.0,SE,11.5,-,N/A,,Overcast,140,2013-06-16 09:54:00
5:54 AM,69.1,66.9,93,29.96,5.0,SSE,5.8,-,0.02,,Overcast,150,2013-06-16 10:54:00
6:54 AM,70.0,66.9,90,29.97,10.0,Calm,Calm,-,N/A,,Overcast,0,2013-06-16 11:54:00
7:54 AM,71.1,66.9,87,29.99,10.0,SSE,4.6,-,0.01,Rain,Light Rain,160,2013-06-16 12:54:00
8:54 AM,71.1,66.9,87,29.99,10.0,Calm,Calm,-,0.00,Rain,Light Rain,0,2013-06-16 13:54:00
9:04 AM,71.6,66.2,83,30.00,0.8,South,4.6,-,0.13,Rain,Heavy Rain,170,2013-06-16 14:04:00
9:16 AM,69.8,68.0,94,29.99,2.0,SE,4.6,-,0.22,Rain,Light Rain,140,2013-06-16 14:16:00
9:23 AM,71.6,66.2,83,30.00,10.0,Variable,3.5,-,0.22,Rain,Light Rain,0,2013-06-16 14:23:00
9:54 AM,71.1,69.1,93,29.98,10.0,East,3.5,-,0.22,Rain,Light Rain,100,2013-06-16 14:54:00
10:54 AM,73.0,69.1,87,29.98,10.0,ESE,5.8,-,0.00,,Overcast,120,2013-06-16 15:54:00
11:42 AM,75.2,69.8,83,29.99,10.0,SSE,5.8,-,N/A,,Overcast,160,2013-06-16 16:42:00
11:54 AM,75.9,69.1,79,29.98,10.0,SSE,8.1,-,N/A,,Overcast,160,2013-06-16 16:54:00
12:30 PM,73.4,69.8,88,29.99,1.5,SSW,4.6,-,0.04,Rain,Rain,210,2013-06-16 17:30:00
12:41 PM,73.4,71.6,94,29.99,3.0,South,8.1,-,0.06,Rain,Light Rain,190,2013-06-16 17:41:00
12:51 PM,77.0,73.4,89,29.98,10.0,SSW,8.1,-,0.06,,Overcast,200,2013-06-16 17:51:00
12:54 PM,77.0,72.0,84,29.97,10.0,South,6.9,-,0.06,,Overcast,190,2013-06-16 17:54:00
1:54 PM,79.0,71.1,77,29.95,10.0,SW,8.1,-,N/A,,Overcast,220,2013-06-16 18:54:00
2:07 PM,80.6,71.6,74,29.96,10.0,SW,9.2,-,N/A,,Overcast,220,2013-06-16 19:07:00
2:35 PM,80.6,71.6,74,29.95,10.0,SW,5.8,-,N/A,,Mostly Cloudy,220,2013-06-16 19:35:00
2:54 PM,82.0,71.1,69,29.93,10.0,SW,8.1,-,N/A,,Mostly Cloudy,220,2013-06-16 19:54:00
3:54 PM,82.9,72.0,69,29.91,10.0,Variable,4.6,-,N/A,,Scattered Clouds,0,2013-06-16 20:54:00
4:54 PM,84.0,72.0,67,29.92,10.0,Variable,3.5,-,N/A,,Partly Cloudy,0,2013-06-16 21:54:00
5:54 PM,84.0,73.0,69,29.91,10.0,NNW,4.6,-,N/A,,Mostly Cloudy,330,2013-06-16 22:54:00
6:54 PM,82.0,72.0,71,29.90,10.0,NNE,4.6,-,N/A,,Scattered Clouds,30,2013-06-16 23:54:00
7:54 PM,80.1,72.0,76,29.91,10.0,ENE,3.5,-,N/A,,Overcast,60,2013-06-17 00:54:00
8:54 PM,78.1,73.0,84,29.91,10.0,NE,3.5,-,N/A,,Mostly Cloudy,40,2013-06-17 01:54:00
9:54 PM,77.0,73.0,88,29.93,8.0,Calm,Calm,-,N/A,,Mostly Cloudy,0,2013-06-17 02:54:00
10:14 PM,77.0,73.4,89,29.95,8.0,Calm,Calm,-,N/A,Thunderstorm,Scattered Clouds,0,2013-06-17 03:14:00
10:25 PM,75.2,73.4,94,29.95,7.0,NNE,3.5,-,N/A,Thunderstorm,Mostly Cloudy,20,2013-06-17 03:25:00
10:47 PM,77.0,73.4,89,29.94,7.0,North,5.8,-,N/A,,Overcast,360,2013-06-17 03:47:00
10:54 PM,77.0,73.9,90,29.92,7.0,Calm,Calm,-,N/A,,Overcast,0,2013-06-17 03:54:00
11:54 PM,75.0,70.0,84,29.93,10.0,South,3.5,-,N/A,,Mostly Cloudy,190,2013-06-17 04:54:00